DAUHDAOO

Guest
Details From DAUH - OUED IRARA
To DAOO - ES SENIA
Flight Number -
Tags generated
Created
Modified
Stats Distance 454 nm / 842 km
Max Altitude 34,000 ft / 10,363 m
Waypoints 6
Social Downloads 0
Likes 0
Share VATSIM

Download

Looking for another format? Having issues loading an existing format? Contact us
Advertisement - Login to hide

Notes

Basic altitude profile: - Ascent Rate: 2500ft/min - Ascent Speed: 250kts - Cruise Altitude: 35000ft - Cruise Speed: 420kts - Descent Rate: 1500ft/min - Descent Speed: 250kts Options: - Use NATs: yes - Use PACOTS: yes - Use low airways: yes - Use high airways: yes

Route

DAUH TGU J4 TRB DAOO

ID Type Via Altitude Latitude Longitude Leg Dist Tot Dist Heading (true) Name
O DAUH APT - 0 ft / 0 m 31.67290˚ 6.14046˚ - 0 nm - OUED IRARA
TGU VOR - 28,700 ft / 8,748 m 33.05694˚ 6.08861˚ 83 nm 83 nm 358° / 358° TOUGGOURT VOR-DME
BEREK FIX J4 (AWY-HI) 34,000 ft / 10,363 m 33.63333˚ 5.00000˚ 64 nm 147 nm 303° / 302° -
KAHIL FIX J4 (AWY-HI) 34,000 ft / 10,363 m 34.08333˚ 4.11667˚ 51 nm 199 nm 302° / 301° -
TRB VOR J4 (AWY-HI) 22,600 ft / 6,888 m 35.34778˚ 1.51500˚ 149 nm 348 nm 301° / 300° TIARET VOR-DME
O DAOO APT - 0 ft / 0 m 35.62386˚ -0.62118˚ 105 nm 454 nm 280° / 278° ES SENIA

Altitude Profile

Advertisement - Login to hide

Weather


0- 5 10 15 20 25 30 35+ Temperature / ° C

Clouds and Precipitation
Forecast for 2018-05-21 00:00 UTC. Updated 2 hours ago

Ground ~20,000 ft ~40,000 ft Winds

DAUH

Details ICAO DAUH (HME)
Name OUED IRARA
Region Algeria
Timezone Africa/Algiers (UTC+1.0)
Stats Elevation 463 ft / 141 m (AMSL)
Location 31.672900° 6.140458°
Runways 1
Magnetic Variation 1.458° E

METAR

DAUH 210130Z 01004KT 8000 NSC 24/12 Q1008

Decode

TAF

TAF DAUH 202300Z 2100/2124 04008KT 8000 FEW040 SCT100 PROB30 TEMPO 2100/2104 02015G25KT 4000 DRSA FEW040CB PROB30 TEMPO 2119/2122 04015G25KT 4000 DRSA FEW040CB

Decode

Departure Runways

ID Width Length Bearing (true) Bearing (mag) Surface Threshold Offset Overrun Length
18 148 ft / 45 m 9,952 ft / 3,034 m 184.21° 182.75° Asphalt 0 ft / 0 m 328 ft / 100 m
36 148 ft / 45 m 9,952 ft / 3,034 m 4.20° 2.74° Asphalt 0 ft / 0 m 328 ft / 100 m

DAOO

Details ICAO DAOO (ORN)
Name ES SENIA
Region Algeria
Timezone Africa/Algiers (UTC+1.0)
Stats Elevation 295 ft / 90 m (AMSL)
Location 35.623858° -0.621183°
Runways 1
Magnetic Variation 0.197° E

METAR

DAOO 210130Z 00000KT 2000 BR FEW013 13/12 Q1012

Decode

TAF

TAF DAOO 202300Z 2100/2124 VRB02KT 8000 FEW026 PROB30 TEMPO 2102/2108 2000 BR BKN010 BECMG 2110/2113 34010KT BECMG 2120/2123 VRB02KT

Decode

Destination Runways

ID Width Length Bearing (true) Bearing (mag) Surface Threshold Offset Overrun Length
07 148 ft / 45 m 10,006 ft / 3,050 m 67.06° 66.86° Asphalt 0 ft / 0 m 328 ft / 100 m
25 148 ft / 45 m 10,006 ft / 3,050 m 247.08° 246.88° Asphalt 196 ft / 60 m 0 ft / 0 m

Popular Alternatives